THOR ABLESTAR DEB, 469

Orbit data source: Space-Track

THOR ABLESTAR DEB, 469 is space debris in LEO originally from a launch on Thu, 29 Jun 1961 UTC launched from the Air Force Eastern Test Range (AFETR). Debris objects in space refer to the collection of defunct objects orbiting the Earth. Examples of debris include non-operational satellites, rocket bodies, and fragments generated from explosions, collisions, or faulty payload assembly.

Loading next visibility...
Identifier
469, 1961-015FF
Orbit
LEO
Country
Flag of USUS
Related business
Manufacturer
Unknown
Mission
Spacecraft
Bus & Motor
Unknown
Mass
Unknown
Launch date (UTC)
1961-06-29 (64 years ago)
Launch vehicle
Unknown
Launch site
Air Force Eastern Test Range (AFETR)
Object type
Payload
Rocket body
Debris
Shape & HBR
Unknown
Radar Cross Section
Small (<0.1 m²)

Expand to show TLE details & history
Last TLE update: 11 hours ago

TLE from 11 hours ago
0 THOR ABLESTAR DEB
1 00469U 61015FF  25258.82532438  .00000693  00000-0  27161-3 0  9997
2 00469  66.8329 155.0093 0053011  35.3708 325.0891 14.34428517313659
Epoch: 2025-09-15T19:48Z
TLE epoch observation values (Epoch: 2025-09-15T19:48:28.026Z)
Latitude
0.00001°
Longitude
-137.13189°
Altitude
748.046 km
Speed
7.497 km/s
True Right ascension
10h 20m 02s
True Declination
0° 00' 00"
Sunlit
Object was in daylight at epoch
Visualization orbit readout
Latitude
Unknown
Longitude
Unknown
Altitude
Unknown
Speed
Unknown
Apparent Right ascension
Unknown
Apparent Declination
Unknown
Sunlit
N/A
Visualization observer readout
Local Sidereal Time
23:49:00
Azimuth
Unknown
Elevation
Unknown
Doppler factor
Unknown
Orbital elements
Apogee altitude
813.243 km
Perigee altitude
737.401 km
Semi-major axis
7,153.459 km
Eccentricity
0.0053
Inclination
66.8329°
RAAN
155.0093°
Arg. of periapsis
35.3708°
True anomaly
324.73955°
Mean anomaly
325.0891°
Eccentric anomaly
324.91452°
Mean motion
3.58731 °/min
Orbital period
100.35 mins
BSTAR
0.00027161
Loading maneuver chart data...
Computing Atmospheric mass density...

Documentation

Showing up to 5 results
|